Location: Maddington
(51.2000°N, 1.9167°W)
Time: 21:18:08
(UTC+00:00)

Okean 1-7 Rocket - Pass Details

Date: 18 September 2020
Orbit: 616 x 649 km, 82.5° (Epoch: 20 October)

Event Time Altitude Azimuth Distance (km) Brightness Sun altitude
Rises 20:40:26 0° 353° (N) 2,980 7.6 -22.4°
Reaches altitude 10° 20:42:46 10° 359° (N) 2,066 6.7 -22.7°
Enters shadow 20:46:42 45° 52° (NE) 888 4.1 -23.2°
